OSCAR 7 1 07530U 74089B 25353.28034821 -.00000036 00000-0 66354-4 0 9997 2 07530 101.9964 359.6167 0012379 114.2758 315.0632 12.53694362337974 OSCAR 11 (UOSAT 2) 1 14781U 84021B 25353.17249253 .00001265 00000-0 13633-3 0 9990 2 14781 97.7819 316.1012 0009155 64.2882 295.9280 14.90162296230312 OSCAR 19 (LUSAT) 1 20442U 90005G 25353.03514186 .00000118 00000-0 58885-4 0 9990 2 20442 98.8956 4.7791 0011870 19.6201 340.5437 14.34047240876571 EYESAT A 1 22825U 93061C 25353.15220394 .00000101 00000-0 55746-4 0 9995 2 22825 98.7138 55.4345 0007302 268.1018 91.9328 14.30878998681252 ITAMSAT 1 22826U 93061D 25353.11501594 .00000114 00000-0 60030-4 0 9992 2 22826 98.7086 55.2972 0007906 249.8588 110.1745 14.31300021681555 RADIO ROSTO 1 23439U 94085A 25353.25451674 .00000077 00000-0 33951-2 0 9996 2 23439 64.8157 234.2150 0149940 37.2855 323.8366 11.27583455275611 JAS 2 1 24278U 96046B 25353.20552665 -.00000035 00000-0 11478-5 0 9992 2 24278 98.5459 221.4730 0349439 203.1787 155.3258 13.53262932448825 TECHSAT 1B 1 25397U 98043D 25353.23960096 .00000059 00000-0 45722-4 0 9991 2 25397 98.9925 336.6018 0001867 47.1475 312.9859 14.24378852425717 ISS (ZARYA) 1 25544U 98067A 25353.05456139 .00006809 00000-0 12867-3 0 9991 2 25544 51.6316 111.2076 0003177 269.7772 90.2853 15.49660414543830 PCSAT 1 26931U 01043C 25353.23227240 .00000115 00000-0 73823-4 0 9993 2 26931 67.0515 349.6882 0007422 269.6163 90.4089 14.31858250264688 SAUDISAT 1C 1 27607U 02058C 25353.21431346 .00001457 00000-0 19179-3 0 9996 2 27607 64.5532 325.5870 0072510 295.3542 64.0067 14.82416051237775 CUTE-1 1 27844U 03031E 25353.26427094 .00000282 00000-0 14155-3 0 9995 2 27844 98.6762 359.0831 0009431 354.6775 5.4302 14.24184674166062 CUBESAT XI 4 1 27848U 03031J 25353.30424695 .00000237 00000-0 12345-3 0 9997 2 27848 98.6791 358.9793 0009683 12.5538 347.5880 14.23491913165784 MOZHAYETS 4 1 27939U 03042A 25353.31076683 .00000819 00000-0 13575-3 0 9993 2 27939 98.3358 167.6849 0012288 116.2258 5.6330 14.72987318189066 CUBESAT XI 5 1 28895U 05043F 25352.89969748 .00001332 00000-0 22056-3 0 9998 2 28895 98.2722 140.0817 0015219 60.0647 300.2068 14.71922397 75226 CUTE-1.7+APD 2 1 32785U 08021C 25351.68477250 .00005656 00000-0 38073-3 0 9997 2 32785 97.8081 324.8433 0007829 290.5969 69.4418 15.07103756957832 SEEDS 1 32791U 08021J 25352.93873252 .00013528 00000-0 53734-3 0 9993 2 32791 97.7440 338.2982 0002072 176.4619 183.6633 15.25454877959747 YUBELEINY 1 32953U 08025A 25353.30981803 .00000041 00000-0 22086-3 0 9993 2 32953 82.5023 107.3367 0018772 346.5302 13.5274 12.43172287797348 KKS-1 (KISEKI) 1 33499U 09002H 25353.22178749 .00001256 00000-0 16348-3 0 9996 2 33499 98.1183 267.9126 0008552 144.7125 215.4655 14.82455343909529 SWISSCUBE 1 35932U 09051B 25353.20435253 .00000953 00000-0 20005-3 0 9996 2 35932 98.4147 252.9009 0007991 57.1241 303.0727 14.61974940862856 BEESAT 1 35933U 09051C 25353.19272273 .00000803 00000-0 17263-3 0 9992 2 35933 98.4077 252.8881 0006528 69.7967 290.3935 14.61292709862894 ITUPSAT 1 1 35935U 09051E 25353.23335855 .00000723 00000-0 16060-3 0 9990 2 35935 98.4167 252.3021 0008750 77.7876 282.4303 14.60046700862476 XIWANG-1 (HOPE-1) 1 36122U 09072B 25353.27759497 .00000046 00000-0 23606-3 0 9990 2 36122 100.3777 305.1949 0006984 287.1433 72.8915 13.16433810769337 TISAT 1 1 36799U 10035E 25352.75394027 .00016037 00000-0 67105-3 0 9996 2 36799 98.0609 279.5863 0003928 120.5464 239.6160 15.23662842840156 JUGNU 1 37839U 11058B 25353.25601457 .00000420 00000-0 79708-4 0 9994 2 37839 19.9623 321.5205 0018403 248.8455 234.0140 14.13699222733536 SRMSAT 1 37841U 11058D 25352.62149840 .00000393 00000-0 69469-4 0 9992 2 37841 19.9722 72.3527 0011902 18.2035 128.7708 14.11513433732273 HORYU 2 1 38340U 12025D 25353.24353376 .00002774 00000-0 29718-3 0 9999 2 38340 98.1960 114.2932 0009178 55.1918 305.0161 14.89519182721924 STRAND 1 1 39090U 13009E 25353.00586667 .00000292 00000-0 11274-3 0 9991 2 39090 98.3821 172.7367 0009556 54.0258 306.1814 14.37010283671181 CUBEBUG 1 1 39153U 13018D 25352.91614954 .00002833 00000-0 25972-3 0 9994 2 39153 98.1428 140.2820 0012641 29.7012 330.4923 14.95713758684100 ZACUBE 1 39417U 13066B 25351.39749824 .00003280 00000-0 27002-3 0 9999 2 39417 97.8056 307.9496 0042001 132.1904 228.2897 14.99124350653477 TRITON 1 1 39427U 13066M 25353.26442257 .00002565 00000-0 31749-3 0 9996 2 39427 97.8327 262.2257 0093499 100.0523 261.1255 14.80523153647454 GOMX 1 1 39430U 13066Q 25353.30616969 .00002097 00000-0 32587-3 0 9999 2 39430 97.6583 200.0206 0129276 295.3885 63.3984 14.68615949643500 HUMSAT D 1 39433U 13066T 25353.25532990 .00080187 00000-0 10212-2 0 9993 2 39433 97.5000 355.1834 0009279 119.7863 240.4317 15.59023879658803 CUBEBUG 2 1 39440U 13066AA 25351.56788106 .00003439 00000-0 33426-3 0 9993 2 39440 97.8708 295.2332 0058016 269.4523 90.0047 14.92015584649893 FUNCUBE 1 1 39444U 13066AE 25353.16635154 .00006635 00000-0 45031-3 0 9995 2 39444 97.8076 316.5236 0041111 94.8693 265.7229 15.06058099652533 UWE-3 1 39446U 13066AG 25352.84474895 .00002541 00000-0 23140-3 0 9993 2 39446 97.8485 303.1990 0049937 198.9032 161.0336 14.95151860650616 UNISAT 6 1 40012U 14033C 25353.00515618 .00002422 00000-0 27278-3 0 9991 2 40012 97.7618 144.3194 0045226 303.0753 56.6124 14.86841377619372 DUCHIFAT 1 1 40021U 14033M 25353.07471657 .00030950 00000-0 74848-3 0 9994 2 40021 98.0776 25.5527 0006913 14.6038 345.5405 15.41069690627825 QB50P1 1 40025U 14033R 25353.22674195 .00006688 00000-0 36601-3 0 9993 2 40025 98.0961 347.2341 0010987 115.5687 244.6680 15.14567235625752 OBJECT G 1 40905U 15049G 25353.23581954 .00020626 00000-0 32366-3 0 9991 2 40905 97.4839 23.0142 0007388 147.4587 212.7122 15.53679960568393 LILACSAT 2 1 40908U 15049K 25353.34320197 .00011984 00000-0 25653-3 0 9994 2 40908 97.4902 18.9293 0007947 172.5209 187.6159 15.44914974567923 LQSAT 1 40958U 15057A 25353.29563337 .00000609 00000-0 94158-4 0 9996 2 40958 97.6599 350.7137 0018051 132.6863 227.5872 14.76458720548760 CHUBUSAT 2 1 41338U 16012B 25352.60152780 .00005166 00000-0 23916-3 0 9997 2 41338 30.9992 64.4901 0009077 37.3173 322.8097 15.18458218540928 CHUBUSAT 3 1 41339U 16012C 25353.32849962 .00004667 00000-0 22787-3 0 9993 2 41339 31.0059 65.3717 0009284 37.7472 322.3818 15.16556383540854 PRATHAM 1 41783U 16059A 25353.24968401 .00000644 00000-0 12273-3 0 9998 2 41783 97.8268 353.1196 0032817 72.5423 287.9365 14.66843885493130 ALSAT 1N 1 41789U 16059G 25353.30805233 .00000879 00000-0 15753-3 0 9990 2 41789 97.8016 359.7246 0027277 45.0735 315.2678 14.68884076493591